Location: Foligno
(42.9600°N, 12.7050°E)
Time: 04:43:15
(UTC+01:00)

ISS - Pass Details

Date: 16 November 2017
Orbit: 402 x 407 km, 51.6° (Epoch: 13 December)

Event Time Altitude Azimuth Distance (km) Brightness Sun altitude
Exits shadow 05:33:21 45° 283° (WNW) 562 -3.6 -16.4°
Maximum altitude 05:34:12 69° 216° (SW) 433 -3.9 -16.2°
Drops below altitude 10° 05:37:25 10° 133° (SE) 1,449 -0.1 -15.6°
Sets 05:39:29 0° 130° (SE) 2,298 1.1 -15.3°
